Weather reports worldwide

Advertisment
Saarbrücken-Ensheim, Germany (10708): temperature & dewpoint: 10.09.2019 17:00:00 - 16.09.2019 17:00:00 (CEST)Saarbrücken-Ensheim, Germany (10708): temperature 5cm & temperature -5cm: 10.09.2019 17:00:00 - 16.09.2019 17:00:00 (CEST)Saarbrücken-Ensheim, Germany (10708): temperature -20cm & temperature -100cm: 10.09.2019 17:00:00 - 16.09.2019 17:00:00 (CEST)Saarbrücken-Ensheim, Germany (10708): wind speed & gusts: 10.09.2019 17:00:00 - 16.09.2019 17:00:00 (CEST)Saarbrücken-Ensheim, Germany (10708): wind direction: 10.09.2019 17:00:00 - 16.09.2019 17:00:00 (CEST)Saarbrücken-Ensheim, Germany (10708): reduced air pressure: 10.09.2019 17:00:00 - 16.09.2019 17:00:00 (CEST)Saarbrücken-Ensheim, Germany (10708): visibility: 10.09.2019 17:00:00 - 16.09.2019 17:00:00 (CEST)Saarbrücken-Ensheim, Germany (10708): sunshine duration: 10.09.2019 17:00:00 - 16.09.2019 17:00:00 (CEST)Saarbrücken-Ensheim, Germany (10708): precipitation: 10.09.2019 17:00:00 - 16.09.2019 17:00:00 (CEST)
Date & Time tt [°C] td [°C] tt 5cm [°C] tt -5cm [°C] tt -20cm [°C] tt -100cm [°C] ff [km/h] ff [kn] fx [km/h] fx [kn] dd ppp [hPa] vv [km] sd [min] rr [mm]
16.09.2019 17:00:00 23,2 10,1 24,3 26,7 22,2 18,2 9 5 18 10 WNW 1018,1 10 2 0,0
16.09.2019 16:00:00 23,2 10,2 25,7 27,5 21,7 18,2 13 7 19 10 WNW 1018,4 10 6 0,0
16.09.2019 15:00:00 23,0 9,6 25,7 28,6 21,0 18,2 11 6 18 10 WNW 1018,9 10 33 0,0
16.09.2019 14:00:00 23,1 10,0 26,2 28,1 20,0 18,2 8 4 16 9 - 1019,4 10 39 0,0
16.09.2019 13:00:00 22,8 9,7 27,3 26,6 19,0 18,2 8 4 14 8 W 1019,7 50 60 0,0
16.09.2019 12:00:00 20,9 11,7 24,2 22,0 18,3 18,2 4 2 9 5 - 1020,2 10 18 0,0
16.09.2019 11:00:00 19,9 8,4 21,0 20,5 17,8 18,2 4 2 9 5 - 1020,5 10 38 0,0
16.09.2019 10:00:00 17,9 9,1 19,3 17,4 17,5 18,2 6 4 11 6 ESE 1020,7 50 59 0,0
16.09.2019 09:00:00 15,1 9,4 15,4 14,7 17,6 18,2 4 2 11 6 ENE 1020,9 50 42 0,0
16.09.2019 08:00:00 11,4 8,5 9,0 13,6 17,9 18,1 7 4 13 7 NE 1021,5 40 0 0,0
16.09.2019 07:00:00 10,7 8,4 8,1 13,8 18,3 18,1 9 5 15 8 ENE 1021,4 10 0 0,0
16.09.2019 06:00:00 11,9 8,4 7,3 14,3 18,7 18,1 4 2 9 5 - 1021,4 10 0 0,0
16.09.2019 05:00:00 11,6 8,8 8,5 14,8 19,1 18,1 4 2 9 5 - 1021,8 10 0 0,0
16.09.2019 04:00:00 12,2 8,9 8,8 15,4 19,5 18,1 4 2 8 4 - 1021,9 10 0 0,0
16.09.2019 03:00:00 13,3 9,2 9,8 16,0 19,9 18,1 5 3 9 5 NE 1022,1 10 0 0,0
16.09.2019 02:00:00 14,8 9,5 10,9 16,7 20,4 18,1 6 3 9 5 ESE 1021,7 50 0 0,0
16.09.2019 01:00:00 13,5 9,4 10,8 17,5 20,9 18,1 2 1 5 3 SE 1022,3 50 0 0,0
16.09.2019 00:00:00 14,2 10,0 11,2 18,4 21,5 18,1 0 0 5 3 N 1022,4 50 0 0,0
15.09.2019 23:00:00 15,7 10,1 11,8 19,5 22,1 18,1 2 1 4 2 SSW 1022,2 10 0 0,0
15.09.2019 22:00:00 16,4 9,7 12,3 20,8 22,7 18,1 2 1 4 2 - 1022,0 10 0 0,0
15.09.2019 21:00:00 18,0 9,9 14,2 22,6 23,3 18,1 4 2 4 2 NE 1021,8 10 0 0,0
15.09.2019 20:00:00 20,2 10,1 16,6 25,0 23,7 18,1 4 2 11 6 - 1021,3 10 47 0,0
15.09.2019 19:00:00 24,5 9,5 24,0 27,6 23,8 18,1 8 4 16 9 W 1020,5 10 60 0,0
15.09.2019 18:00:00 25,3 9,2 27,0 29,7 23,6 18,1 15 8 22 12 WSW 1020,9 10 60 0,0
15.09.2019 17:00:00 25,5 9,4 28,7 31,1 23,1 18,1 15 8 24 13 W 1021,4 10 60 0,0
15.09.2019 16:00:00 25,8 11,2 29,8 31,7 22,2 18,1 13 7 21 11 WNW 1021,8 10 60 0,0
15.09.2019 15:00:00 24,3 11,3 28,9 31,2 21,2 18,1 11 6 22 12 W 1022,7 10 60 0,0
15.09.2019 14:00:00 23,9 13,4 28,1 30,1 20,1 18,1 11 6 21 11 W 1023,3 10 60 0,0
15.09.2019 13:00:00 22,1 12,2 27,9 28,3 18,9 18,1 9 5 16 8 W 1024,2 10 60 0,0
15.09.2019 12:00:00 20,8 12,5 24,4 25,2 17,9 18,1 7 4 12 6 W 1024,8 50 60 0,0
15.09.2019 11:00:00 19,6 12,7 23,3 21,5 17,2 18,1 5 3 9 5 W 1024,9 10 60 0,0
15.09.2019 10:00:00 18,3 11,9 20,5 17,8 16,9 18,1 4 2 5 3 - 1025,0 10 60 0,0
15.09.2019 09:00:00 15,6 10,5 16,4 14,6 16,9 18,1 2 1 4 2 ENE 1025,5 40 60 0,0
15.09.2019 08:00:00 11,7 10,0 9,7 12,9 17,2 18,1 3 2 5 3 E 1026,0 40 31 0,0
15.09.2019 07:00:00 10,2 8,7 7,7 13,2 17,6 18,1 4 2 5 3 NE 1025,9 40 0 0,0
15.09.2019 06:00:00 11,2 9,4 8,6 13,7 17,9 18,1 4 2 11 6 - 1025,9 10 0 0,0
15.09.2019 05:00:00 12,6 9,5 9,2 14,3 18,3 18,1 8 4 13 7 E 1026,0 10 0 0,0
15.09.2019 04:00:00 13,5 9,7 10,3 14,8 18,6 18,1 6 3 18 10 E 1026,1 40 0 0,0
15.09.2019 03:00:00 13,9 10,0 11,5 15,3 19,0 18,1 13 7 22 12 NE 1026,6 10 0 0,0
15.09.2019 02:00:00 14,2 10,2 11,5 15,9 19,5 18,1 11 6 19 10 NE 1026,9 10 0 0,0
15.09.2019 01:00:00 14,4 10,2 12,0 16,5 19,9 18,1 11 6 16 9 NE 1027,1 10 0 0,0
15.09.2019 00:00:00 13,9 10,2 11,9 17,3 20,5 18,1 9 5 15 8 ENE 1027,5 10 0 0,0
14.09.2019 23:00:00 15,1 10,5 13,5 18,4 21,0 18,1 9 5 18 10 ENE 1028,0 50 0 0,0
14.09.2019 22:00:00 15,4 11,2 13,5 19,7 21,6 18,1 13 7 16 9 NE 1028,2 10 0 0,0
14.09.2019 21:00:00 17,7 11,4 15,9 21,4 22,1 18,1 11 6 16 9 NE 1027,9 10 0 0,0
14.09.2019 20:00:00 19,2 11,8 17,1 23,5 22,5 18,1 9 5 15 8 NE 1027,4 10 45 0,0
14.09.2019 19:00:00 22,1 11,6 21,9 25,8 22,6 18,1 13 7 24 13 NE 1027,1 60 60 0,0
14.09.2019 18:00:00 23,6 11,9 24,6 27,9 22,3 18,1 12 6 21 11 NE 1026,9 60 60 0,0
14.09.2019 17:00:00 23,7 11,4 25,8 29,1 21,7 18,1 9 5 19 10 E 1027,4 10 60 0,0
14.09.2019 16:00:00 23,5 12,2 25,8 29,4 20,9 18,1 10 6 25 14 ENE 1028,0 50 60 0,0
14.09.2019 15:00:00 23,0 12,4 26,0 28,6 20,0 18,1 15 8 22 12 NNE 1028,6 10 59 0,0
14.09.2019 14:00:00 21,8 12,0 24,5 27,2 19,0 18,1 13 7 26 14 E 1029,5 10 60 0,0
14.09.2019 13:00:00 20,6 12,3 23,8 24,8 18,0 18,1 11 6 24 13 ENE 1030,3 10 60 0,0
14.09.2019 12:00:00 18,9 12,3 21,3 21,8 17,4 18,1 13 7 23 12 NE 1031,0 10 60 0,0
14.09.2019 11:00:00 17,1 12,0 18,5 19,3 16,9 18,1 13 7 30 16 NE 1031,3 10 60 0,0
14.09.2019 10:00:00 16,2 11,9 17,3 16,9 16,7 18,1 18 10 29 16 ENE 1031,6 45 60 0,0
14.09.2019 09:00:00 14,5 11,4 15,0 14,8 16,8 18,1 16 9 29 15 NE 1032,2 40 60 0,0
14.09.2019 08:00:00 13,3 10,8 12,7 13,8 17,0 18,1 16 9 28 15 NE 1032,1 10 22 0,0
14.09.2019 07:00:00 13,2 10,7 12,1 14,0 17,2 18,1 15 8 31 17 NE 1031,5 10 0 0,0
14.09.2019 06:00:00 13,4 10,9 12,4 14,4 17,5 18,1 18 10 30 16 NE 1031,5 10 0 0,0
14.09.2019 05:00:00 14,2 12,0 13,2 14,8 17,7 18,1 15 8 26 14 NE 1031,7 10 0 0,0
14.09.2019 04:00:00 14,2 12,4 13,3 15,1 18,0 18,1 15 8 28 15 NE 1032,0 10 0 0,0
14.09.2019 03:00:00 14,4 12,3 13,3 15,5 18,3 18,1 15 8 22 12 NE 1032,4 10 0 0,0
14.09.2019 02:00:00 14,9 12,3 14,0 16,0 18,6 18,1 15 8 28 15 NE 1032,2 10 0 0,0
14.09.2019 01:00:00 15,6 12,2 14,6 16,5 19,0 18,1 16 9 25 13 NE 1032,2 40 0 0,0
14.09.2019 00:00:00 16,0 13,2 14,9 17,2 19,4 18,1 13 7 21 11 NE 1032,3 10 0 0,0
13.09.2019 23:00:00 16,8 13,4 15,6 17,9 19,8 18,1 13 7 21 11 NNE 1032,2 10 0 0,0
13.09.2019 22:00:00 15,9 13,0 13,7 18,9 20,2 18,1 8 4 18 10 N 1032,2 50 0 0,0
13.09.2019 21:00:00 17,2 13,6 14,2 20,5 20,5 18,1 5 3 5 3 NNW 1032,0 50 0 0,0
13.09.2019 20:00:00 19,9 14,1 19,2 22,4 20,6 18,1 4 2 9 5 - 1031,3 10 39 0,0
13.09.2019 19:00:00 21,1 13,7 22,8 23,7 20,5 18,1 5 3 12 7 NNW 1031,2 10 30 0,0
13.09.2019 18:00:00 21,0 14,0 23,0 24,8 20,3 18,1 9 5 16 9 W 1031,4 10 28 0,0
13.09.2019 17:00:00 20,7 13,5 22,9 25,4 19,8 18,1 4 2 15 8 - 1031,7 10 31 0,0
13.09.2019 16:00:00 20,9 13,8 23,7 24,4 19,3 18,1 9 5 18 10 NW 1031,6 30 5 0,0
13.09.2019 15:00:00 19,9 14,0 22,6 24,3 18,7 18,1 11 6 17 9 WNW 1032,0 10 11 0,0
13.09.2019 14:00:00 20,2 14,5 23,7 22,7 18,2 18,1 11 6 16 9 NW 1032,1 10 13 0,0
13.09.2019 13:00:00 19,2 13,8 20,7 20,8 17,8 18,1 12 7 21 11 W 1032,5 40 0 0,0
13.09.2019 12:00:00 18,8 13,8 19,8 21,2 17,3 18,1 11 6 21 11 WNW 1032,5 10 20 0,0
13.09.2019 11:00:00 19,0 14,2 21,2 19,8 16,7 18,1 10 5 14 8 W 1032,5 40 27 0,0
13.09.2019 10:00:00 16,9 14,2 17,9 16,4 16,5 18,1 4 2 8 4 SSW 1032,5 30 0 0,0
13.09.2019 09:00:00 15,2 13,5 14,7 15,2 16,4 18,1 2 1 4 2 - 1032,3 10 0 0,0
13.09.2019 08:00:00 13,9 13,1 13,8 14,3 16,5 18,2 2 1 4 2 - 1032,3 10 0 0,0
13.09.2019 07:00:00 12,9 12,0 12,6 14,0 16,6 18,2 2 1 4 2 - 1032,3 10 0 0,0
13.09.2019 06:00:00 13,0 12,3 12,9 13,8 16,8 18,2 2 1 4 2 SSW 1031,9 10 0 0,0
13.09.2019 05:00:00 12,2 11,6 9,5 13,6 17,0 18,2 2 1 5 3 SW 1031,9 10 0 0,0
13.09.2019 04:00:00 12,1 11,4 9,9 13,9 17,3 18,2 2 1 5 3 SE 1031,9 40 0 0,0
13.09.2019 03:00:00 12,7 11,7 10,4 14,4 17,7 18,2 4 2 8 4 - 1031,8 10 0 0,0
13.09.2019 02:00:00 12,8 11,5 10,7 14,9 18,0 18,2 3 1 5 3 ESE 1031,6 50 0 0,0
13.09.2019 01:00:00 13,4 11,6 10,6 15,5 18,3 18,2 4 2 8 4 W 1031,6 10 0 0,0
13.09.2019 00:00:00 13,8 11,8 11,7 16,1 18,7 18,2 2 1 8 4 W 1031,6 10 0 0,0
12.09.2019 23:00:00 14,9 12,3 11,9 16,9 19,2 18,2 4 2 8 4 - 1031,4 10 0 0,0
12.09.2019 22:00:00 15,9 12,4 12,4 17,9 19,6 18,2 8 4 9 5 WSW 1031,3 10 0 0,0
12.09.2019 21:00:00 17,0 12,6 13,7 19,3 19,9 18,2 5 3 16 9 W 1031,0 10 0 0,0
12.09.2019 20:00:00 19,8 12,8 16,7 21,0 20,1 18,2 10 5 18 10 W 1030,1 60 55 0,0
12.09.2019 19:00:00 21,7 13,4 22,0 22,8 20,1 18,2 13 7 22 12 W 1029,7 10 57 0,0
12.09.2019 18:00:00 22,2 14,2 23,5 24,1 19,8 18,2 13 7 22 12 W 1029,6 60 51 0,0
12.09.2019 17:00:00 22,8 13,4 25,5 24,0 19,4 18,3 16 9 24 13 W 1029,6 60 28 0,0
12.09.2019 16:00:00 21,4 13,7 22,8 23,1 19,1 18,3 7 4 16 9 WNW 1030,1 60 2 0,0
12.09.2019 15:00:00 20,7 13,4 22,3 24,0 18,6 18,3 11 6 22 12 W 1030,4 10 11 0,0
12.09.2019 14:00:00 20,9 13,4 22,8 23,5 18,0 18,3 16 9 29 16 W 1030,5 50 9 0,0
12.09.2019 13:00:00 19,9 13,2 21,9 22,4 17,4 18,3 19 10 27 14 W 1030,6 50 18 0,0
12.09.2019 12:00:00 18,9 13,2 20,6 19,7 16,9 18,3 16 9 23 13 W 1030,8 10 3 0,0
12.09.2019 11:00:00 18,3 12,1 20,5 18,5 16,6 18,3 15 8 21 11 WSW 1030,5 10 3 0,0
12.09.2019 10:00:00 16,8 10,3 17,7 16,8 16,4 18,3 15 8 20 11 WSW 1030,2 10 0 0,0
12.09.2019 09:00:00 16,2 9,7 16,6 15,6 16,3 18,3 11 6 15 8 SW 1029,6 10 0 0,0
12.09.2019 08:00:00 15,3 9,7 15,2 14,8 16,4 18,3 5 3 11 6 WSW 1029,1 10 0 0,0
12.09.2019 07:00:00 15,0 9,2 14,4 14,7 16,5 18,3 8 4 11 6 WSW 1028,8 10 0 0,0
12.09.2019 06:00:00 15,5 8,8 14,8 14,9 16,6 18,4 13 7 15 8 W 1028,2 10 0 0,0
12.09.2019 05:00:00 15,6 8,7 14,8 15,1 16,6 18,4 11 6 14 8 WSW 1028,3 10 0 0,0
12.09.2019 04:00:00 15,6 8,6 14,5 15,2 16,7 18,4 5 3 11 6 W 1028,0 10 0 0,0
12.09.2019 03:00:00 15,8 8,6 14,9 15,3 16,9 18,4 8 4 13 7 WSW 1027,7 50 0 0,0
12.09.2019 02:00:00 16,1 8,5 15,2 15,5 17,0 18,4 7 4 11 6 SW 1027,4 50 0 0,0
12.09.2019 01:00:00 15,7 8,7 14,7 15,5 17,1 18,4 5 3 9 5 SW 1027,1 50 0 0,0
12.09.2019 00:00:00 16,1 8,5 14,5 15,7 17,3 18,4 5 3 14 7 WSW 1026,9 10 0 0,0
11.09.2019 23:00:00 17,0 8,1 15,7 16,1 17,5 18,4 11 6 15 8 SW 1026,5 10 0 0,0
11.09.2019 22:00:00 17,0 7,9 16,0 16,4 17,7 18,4 11 6 15 8 SW 1026,5 50 0 0,0
11.09.2019 21:00:00 16,8 8,3 15,7 17,1 17,9 18,5 9 5 13 7 SW 1025,9 50 0 0,0
11.09.2019 20:00:00 17,4 8,0 16,4 17,6 18,1 18,5 9 5 24 13 W 1025,3 10 0 0,0
11.09.2019 19:00:00 18,3 7,5 17,9 18,5 18,2 18,5 15 8 24 13 W 1024,9 10 0 0,0
11.09.2019 18:00:00 18,9 7,8 18,7 19,5 18,2 18,5 8 4 15 8 SW 1024,4 10 0 0,0
11.09.2019 17:00:00 18,8 7,9 18,8 20,1 18,1 18,5 13 7 24 13 WSW 1024,3 10 0 0,0
11.09.2019 16:00:00 19,1 7,0 20,1 21,1 17,9 18,5 20 11 26 14 WSW 1024,1 50 3 0,0
11.09.2019 15:00:00 18,9 6,7 20,0 21,2 17,6 18,5 14 8 22 12 W 1024,2 50 0 0,0
11.09.2019 14:00:00 18,9 7,3 20,4 21,7 17,0 18,5 13 7 22 12 WSW 1024,0 50 3 0,0
11.09.2019 13:00:00 19,2 7,0 22,1 21,8 16,3 18,6 13 7 22 12 WSW 1023,9 10 18 0,0
11.09.2019 12:00:00 18,4 6,6 21,5 21,3 15,3 18,6 9 5 16 9 WSW 1024,3 10 60 0,0
11.09.2019 11:00:00 16,1 9,0 19,7 18,3 14,6 18,6 8 4 13 7 W 1024,4 10 60 0,0
11.09.2019 10:00:00 14,0 8,3 15,9 14,8 14,2 18,6 4 2 8 4 SSE 1024,3 40 60 0,0
11.09.2019 09:00:00 10,4 6,5 10,9 11,6 14,2 18,6 5 3 5 3 W 1024,5 35 60 0,0
11.09.2019 08:00:00 8,7 6,8 7,9 9,7 14,4 18,6 3 2 8 4 WNW 1024,0 35 26 0,0
11.09.2019 07:00:00 6,8 5,8 5,2 9,7 14,7 18,6 6 3 8 4 E 1024,0 35 0 0,0
11.09.2019 06:00:00 6,6 5,4 4,7 10,1 15,0 18,6 2 1 5 3 E 1023,5 35 0 0,0
11.09.2019 05:00:00 7,0 5,8 4,2 10,5 15,3 18,6 2 1 4 2 - 1022,9 10 0 0,0
11.09.2019 04:00:00 8,0 6,2 5,3 11,0 15,6 18,7 4 2 4 2 ESE 1022,5 40 0 0,0
11.09.2019 03:00:00 8,3 6,0 5,5 11,4 16,0 18,7 2 1 4 2 ENE 1022,4 40 0 0,0
11.09.2019 02:00:00 8,9 6,2 6,1 12,0 16,4 18,7 2 1 4 2 E 1022,2 10 0 0,0
11.09.2019 01:00:00 8,8 6,2 6,5 12,6 16,8 18,7 2 1 4 2 SSE 1022,0 10 0 0,0
11.09.2019 00:00:00 9,6 6,0 7,0 13,3 17,3 18,7 2 1 8 4 - 1021,9 10 0 0,0
10.09.2019 23:00:00 10,7 6,1 7,8 14,1 17,8 18,7 2 1 9 5 - 1021,4 10 0 0,0
10.09.2019 22:00:00 11,6 5,7 8,0 15,1 18,3 18,8 2 1 8 4 - 1020,9 10 0 0,0
10.09.2019 21:00:00 12,7 6,0 9,4 16,6 18,8 18,8 8 4 11 6 NNE 1020,1 10 0 0,0
10.09.2019 20:00:00 16,1 5,6 12,9 18,4 19,1 18,8 8 4 11 6 N 1019,0 50 49 0,0
10.09.2019 19:00:00 19,1 3,2 18,7 20,3 19,2 18,8 4 2 11 6 - 1018,2 10 53 0,0
10.09.2019 18:00:00 19,8 2,8 21,0 22,2 19,1 18,8 8 4 16 9 NE 1017,6 10 60 0,0
10.09.2019 17:00:00 19,3 2,7 21,3 23,4 18,6 18,8 8 4 21 11 - 1017,5 10 60 0,0

tt = temperature
td = dewpoint
tt 5cm = temperature 5cm
tt -5cm = temperature -5cm
tt -20cm = temperature -20cm
tt -100cm = temperature -100cm
ff = wind speed
fx = gusts
dd = wind direction
ppp = reduced air pressure
vv = visibility
sd = sunshine duration
rr = precipitation

Next stations